Mt. Clemens, MI

2:06 AM EDT on April 24, 2017 (GMT -0400)
Selfridge Angb

Weather History for KMTC - September, 2013

Change the Weather History Date:

Monday, September 16, 2013

  Actual Average Record
Temperature  
Mean Temperature 53 °F -  
Max Temperature 62 °F 69 °F 85 °F (1991)
Min Temperature 44 °F 52 °F 37 °F (1966)
Degree Days  
Heating Degree Days 12    
Growing Degree Days 3 (Base 50)    
Moisture  
Dew Point 49 °F    
Average Humidity 81    
Maximum Humidity 100    
Minimum Humidity 50    
Precipitation  
Precipitation 0.00 in - - ()
Sea Level Pressure  
Sea Level Pressure 30.25 in    
Wind  
Wind Speed 8 mph (NNW)    
Max Wind Speed 18 mph    
Max Gust Speed 23 mph    
Visibility 10 miles    
Events      
Averages and records for this station are not official NWS values.
T = Trace of Precipitation, MM = Missing Value Source: NWS Daily Summary

Daily Weather History Graph

Daily Weather History Graph

Search for Another Location

Airport or City:

Trip Planner

Search our weather history database for the weather conditions in past years. The results will help you decide how hot, cold, wet, or windy it might be!

Date:

Astronomy

Sep. 16, 2013 Rise Set
Actual Time 7:12 AM EDT 7:38 PM EDT
Civil Twilight 6:44 AM EDT 8:07 PM EDT
Nautical Twilight 6:10 AM EDT 8:40 PM EDT
Astronomical Twilight 5:36 AM EDT 9:14 PM EDT
Moon 5:49 PM EDT (9/16) 3:53 AM EDT (9/16)
Length of Visible Light 13h 22m
Length of Day
12h 26m
Waxing Gibbous, 90% of the Moon is Illuminated
Sep 16
Waxing Gibbous
Sep 19
Full
Sep 26
Last Quarter
Oct 4
New
Oct 11
First Quarter

Hourly Weather History & Observations

Time (EDT) Temp. Windchill Dew Point Humidity Pressure Visibility Wind Dir Wind Speed Gust Speed Precip Events Conditions
12:58 AM 55.4 °F - 54.3 °F 96% 30.12 in 10.0 mi West 2.3 mph - N/A   Mostly Cloudy
1:43 AM 53.6 °F - 53.6 °F 100% 30.12 in 5.0 mi West 1.2 mph - N/A   Partly Cloudy
1:48 AM 53.6 °F - 53.6 °F 100% 30.12 in 2.5 mi West 2.3 mph - N/A   Partly Cloudy
1:53 AM 53.6 °F - 53.6 °F 100% 30.12 in 3.0 mi West 3.5 mph - N/A   Partly Cloudy
1:58 AM 53.2 °F - 53.1 °F 99% 30.13 in 6.0 mi West 3.5 mph - N/A   Partly Cloudy
2:03 AM 53.6 °F - 53.6 °F 100% 30.12 in 10.0 mi West 3.5 mph - N/A   Partly Cloudy
2:58 AM 53.1 °F - 51.6 °F 95% 30.13 in 10.0 mi WNW 4.6 mph - N/A   Clear
3:58 AM 52.9 °F - 51.8 °F 96% 30.14 in 10.0 mi WNW 6.9 mph - N/A   Mostly Cloudy
4:38 AM 53.6 °F - 51.8 °F 94% 30.14 in 10.0 mi WNW 6.9 mph - N/A   Mostly Cloudy
4:58 AM 54.1 °F - 53.4 °F 97% 30.16 in 10.0 mi NNW 8.1 mph - N/A   Overcast
5:08 AM 55.4 °F - 53.6 °F 94% 30.14 in 10.0 mi NW 4.6 mph - N/A   Overcast
5:33 AM 55.4 °F - 53.6 °F 94% 30.15 in 10.0 mi NW 9.2 mph - N/A   Overcast
5:58 AM 55.4 °F - 53.2 °F 92% 30.17 in 10.0 mi NNW 11.5 mph 21.9 mph N/A   Overcast
6:58 AM 55.6 °F - 53.6 °F 93% 30.19 in 10.0 mi NNW 9.2 mph - N/A   Overcast
7:31 AM 55.4 °F - 53.6 °F 94% 30.20 in 10.0 mi NNW 12.7 mph - N/A   Mostly Cloudy
7:55 AM 55.8 °F - 53.6 °F 92% 30.23 in 10.0 mi NNW 13.8 mph - N/A   Overcast
8:10 AM 57.2 °F - 53.6 °F 88% 30.21 in 10.0 mi North 13.8 mph - N/A   Overcast
8:55 AM 56.1 °F - 52.3 °F 87% 30.26 in 10.0 mi North 17.3 mph 23.0 mph N/A   Overcast
9:24 AM 55.4 °F - 51.8 °F 88% 30.25 in 10.0 mi North 17.3 mph - N/A   Overcast
9:55 AM 57.6 °F - 51.6 °F 81% 30.28 in 10.0 mi North 17.3 mph - N/A   Overcast
10:08 AM 57.2 °F - 51.8 °F 82% 30.26 in 10.0 mi North 17.3 mph - N/A   Mostly Cloudy
10:55 AM 60.1 °F - 49.3 °F 67% 30.30 in 10.0 mi North 15.0 mph 20.7 mph N/A   Scattered Clouds
11:20 AM 59.0 °F - 48.2 °F 67% 30.29 in 10.0 mi North 18.4 mph 23.0 mph N/A   Mostly Cloudy
11:50 AM 60.8 °F - 48.2 °F 63% 30.29 in 10.0 mi North 17.3 mph - N/A   Mostly Cloudy
11:55 AM 60.4 °F - 47.3 °F 62% 30.32 in 10.0 mi North 15.0 mph - N/A   Mostly Cloudy
12:55 PM 60.6 °F - 46.4 °F 59% 30.33 in 10.0 mi North 13.8 mph - N/A   Mostly Cloudy
1:55 PM 61.3 °F - 46.2 °F 58% 30.35 in 10.0 mi North 18.4 mph - N/A   Mostly Cloudy
2:55 PM 61.2 °F - 44.4 °F 54% 30.35 in 10.0 mi North 9.2 mph - N/A   Scattered Clouds
3:55 PM 60.6 °F - 42.3 °F 51% 30.34 in 10.0 mi North 16.1 mph - N/A   Scattered Clouds
4:55 PM 60.3 °F - 41.5 °F 50% 30.34 in 10.0 mi NNE 11.5 mph - N/A   Partly Cloudy
5:55 PM 58.8 °F - 42.3 °F 54% 30.35 in 10.0 mi NNE 11.5 mph 19.6 mph N/A   Partly Cloudy
6:55 PM 55.8 °F - 42.3 °F 60% 30.35 in 12.0 mi NNE 11.5 mph - N/A   Partly Cloudy
7:55 PM 51.4 °F - 42.1 °F 70% 30.37 in 12.0 mi NNE 10.4 mph - N/A   Partly Cloudy
8:58 PM 49.3 °F - 41.7 °F 75% 30.37 in 10.0 mi NNE 8.1 mph - N/A   Clear
9:58 PM 46.2 °F 42.2 °F 40.8 °F 81% 30.38 in 10.0 mi North 8.1 mph - N/A   Clear
10:58 PM 45.5 °F 41.8 °F 40.6 °F 83% 30.39 in 10.0 mi NNW 6.9 mph - N/A   Clear
11:58 PM 44.1 °F 40.1 °F 40.1 °F 86% 30.38 in 10.0 mi North 6.9 mph - N/A   Clear